Weather Roundup
Issued by NWS Chicago, IL

Home | Current Version | Previous Version | Text Only | Print | Product List | Glossary On
Versions: 1 2 3 4 5 6 7 8 9 10 11 12 13 14 15 16 17 18 19 20 21 22 23 24 25 26 27 28 29 30 31 32 33 34 35 36 37 38 39 40 41 42 43 44 45 46 47 48 49 50
000
NZUS59 KLOT 170809
HRRLOT

CHICAGO AREA WEATHER ROUNDUP
NATIONAL WEATHER SERVICE CHICAGO/ROMEOVILLE IL
300 AM CDT TUE OCT 17 2017

NOTE: "FAIR" INDICATES FEW OR NO CLOUDS BELOW 12,000 FEET WITH NO
SIGNIFICANT WEATHER AND/OR OBSTRUCTIONS TO VISIBILITY.

* THESE STATIONS ARE NOT UNDER NWS QUALITY CONTROL. THEY ALSO MAY NOT
  REPORT WEATHER SUCH AS PRECIPITATION OR FOG.

ILZ005-006-012>014-019>023-170900-
NORTHEAST ILLINOIS

CITY           SKY/WX    TMP DP  RH WIND       PRES   REMARKS
OHARE          PTCLDY    50  37  61 SW10      30.19S
MIDWAY         PTCLDY    49  39  68 SW8       30.21S
AURORA         CLOUDY    44  39  82 S6        30.21S
LANSING*       CLEAR     45  40  82 SW8       30.23S
JOLIET*        PTCLDY    44  42  93 S3        30.22S
WAUKEGAN       CLEAR     47  39  74 SW7       30.16F
DUPAGE AIRPORT PTCLDY    47  39  74 S8        30.19F
WHEELING       CLEAR     49  39  68 S6        30.20S
KANKAKEE*      CLOUDY    46  37  72 SW6       30.25S
MORRIS*        CLEAR     44  38  80 CALM      30.21S
LEWIS AIRPORT* CLEAR     43  39  83 S7        30.22S
NORTHERLY ISL    N/A     51  37  58 S6          N/A
$$

WIZ051-052-058>065-066-070>072-170900-
SOUTHEAST WISCONSIN

CITY           SKY/WX    TMP DP  RH WIND       PRES   REMARKS
MILWAUKEE      PTCLDY    49  38  65 SW10      30.14S
KENOSHA*       CLEAR     47  38  71 SW7       30.16S
RACINE*        CLEAR     49  38  65 SW9       30.16F
BURLINGTON     CLEAR     39  39 100 CALM      30.15F
WAUKESHA       CLEAR     45  36  70 S6        30.14F
WEST BEND      CLEAR     54  34  47 SW14G20   30.10F
$$

INZ001>003-010>013-019-020-170900-
NORTHWEST INDIANA

CITY           SKY/WX    TMP DP  RH WIND       PRES   REMARKS
GARY*          CLEAR     49  37  62 S3        30.23S
MICHIGAN CITY* NOT AVBL
RENSSELAER*    NOT AVBL
VALPARAISO     CLEAR     46  38  73 SW3       30.24S
$$

LMZ740>746-170900-
SOUTHERN LAKE MICHIGAN

STATION/POSITION TIME  SKY/WX   TEMP WIND        PRES    VSBY
                                AIR  DIR/SP/G
                 (UTC)          (F)  (DEG/KT/KT) (MB)    (MI)
HARRISON CRIB    0700            57  200/ 16/ 17   N/A
BURNHAM HARBOR   0800            51  190/  6/  7   N/A
CALUMET HARBOR   0742            52  200/  7/ 10 1022.4R
BURNS HARBOR     0740            51  190/ 12/ 15 1023.7S
MICHIGAN CITY    0700            52  180/ 13/ 14   N/A
$$

ABBREVIATIONS USED IN REMARKS
   TC - TEMPERATURE IN CELSIUS
  WCI - WIND CHILL INDEX
   HX - HEAT INDEX
  VSB - VISIBILITY
$$



USA.gov is the U.S. government's official web portal to all federal, state and local government web resources and services.